sat.trackr.live / text

‹ back to catalog

UNKNOWN

NORAD 81488

UNKNOWN UNKNOWN UNKNOWN

§ Identity

Operator
Country
Launch date
Launch site
Launch vehicle
Mass (kg)
RCS (m²)

External: N2YO · Heavens-Above

§ Orbital elements

Epoch: 2026-09-17T21:34:42.155328Z

Period
106.14 min
Inclination
99.9628°
Eccentricity
0.0045066
Mean motion
13.56715291 rev/d
Perigee alt
1,014.2 km
Apogee alt
1,081.1 km
Semi-major
7,425.8 km
B*
5.0372e-4
RAAN
142.2616°
Arg perigee
26.4665°
Mean anomaly
34.2968°
Rev number
63,448

§ Raw data

UNKNOWN1 81488U          26260.89909902  .00000313  00000+0  50372-3 0  99972 81488  99.9628 142.2616 0045066  26.4665  34.2968 13.56715291634483

JSON: /api/v1/satellites/81488 · /tle

For live sub-satellite position, see the globe view (requires WebGL).

§ Visibility from observer

Set your observer location to see the next 7 days of passes ≥ 10°. The values pass through the URL so the page stays shareable.

No JS? Fill the form by hand. The geolocation button needs JavaScript.